Weather History for Marrakech, Morocco

Change the Weather History Date:

Friday, October 7, 2011

  Actual Average Record
Temperature  
Mean Temperature 78 °F -  
Max Temperature 95 °F 78 °F 96 °F (2012)
Min Temperature 62 °F 56 °F 57 °F (1998)
Cooling Degree Days 14    
Growing Degree Days 28 (Base 50)    
Moisture  
Dew Point 43 °F    
Average Humidity 29    
Maximum Humidity 52    
Minimum Humidity 6    
Precipitation  
Precipitation 0.00 in 0.04 in - ()
Sea Level Pressure  
Sea Level Pressure 30.11 in    
Wind  
Wind Speed 4 mph ()    
Max Wind Speed 14 mph    
Max Gust Speed -    
Visibility 5.7 miles    
Events      
Averages and records for this station are not official NWS values.
T = Trace of Precipitation, MM = Missing Value Source: Averaged Metar Reports

Daily Weather History Graph

Daily Weather History Graph

Search for Another Location

Airport:

Trip Planner

Search our weather history database for the weather conditions in past years. The results will help you decide how hot, cold, wet, or windy it might be!

Date:

Astronomy

Oct. 07, 2011 Rise Set
Actual Time 6:29 AM WET 6:10 PM WET
Civil Twilight 6:05 AM WET 6:34 PM WET
Nautical Twilight 5:36 AM WET 7:02 PM WET
Astronomical Twilight 5:08 AM WET 7:30 PM WET
Moon 3:33 PM WET (10/7) 2:19 AM WET (10/7)
Length of Visible Light 12h 29m
Length of Day
11h 40m
Waxing Gibbous, 82% of the Moon is Illuminated
Oct 7
Waxing Gibbous
Oct 12
Full
Oct 20
Last Quarter
Oct 26
New
Nov 2
First Quarter

Hourly Weather History & Observations

Time (WET) Temp. Heat Index Dew Point Humidity Pressure Visibility Wind Dir Wind Speed Gust Speed Precip Events Conditions
12:00 AM 69 °F - 40 °F 23% 30.11 in 6 mi WSW 3.5 mph - -  
12:00 AM 68.0 °F - 41.0 °F 37% 30.15 in - West 3.5 mph - N/A   Clear
1:00 AM 68.0 °F - 41.0 °F 37% 30.15 in - SW 4.6 mph - N/A   Clear
1:30 AM 66.2 °F - 41.0 °F 40% 30.15 in - SW 3.5 mph - N/A   Clear
2:00 AM 68.0 °F - 39.2 °F 35% 30.12 in - Variable 1.2 mph - N/A   Clear
2:30 AM 68.0 °F - 39.2 °F 35% 30.12 in - Calm Calm - N/A   Clear
3:00 AM 70 °F - 40 °F 23% 30.08 in 6 mi South 4.6 mph - -  
3:00 AM 69.8 °F - 41.0 °F 35% 30.12 in - South 4.6 mph - N/A   Clear
3:30 AM 69.8 °F - 41.0 °F 35% 30.12 in - South 6.9 mph - N/A   Clear
4:00 AM 69.8 °F - 41.0 °F 35% 30.12 in - South 5.8 mph - N/A   Clear
4:30 AM 69.8 °F - 41.0 °F 35% 30.12 in - South 3.5 mph - N/A   Clear
5:00 AM 66.2 °F - 39.2 °F 37% 30.12 in - SE 2.3 mph - N/A   Clear
5:30 AM 64.4 °F - 42.8 °F 45% 30.12 in - Variable 1.2 mph - N/A   Clear
6:00 AM 64 °F - 42 °F 33% 30.10 in 6 mi Calm Calm - -   Scattered Clouds
6:00 AM 64.4 °F - 41.0 °F 42% 30.12 in 6.2 mi ESE 1.2 mph - N/A   Partly Cloudy
6:30 AM 62.6 °F - 42.8 °F 48% 30.12 in 6.2 mi Variable 2.3 mph - N/A   Partly Cloudy
7:00 AM 64.4 °F - 42.8 °F 45% 30.15 in 5.0 mi Calm Calm - N/A   Partly Cloudy
7:30 AM 68.0 °F - 42.8 °F 40% 30.15 in 5.0 mi WSW 3.5 mph - N/A   Partly Cloudy
8:00 AM 73.4 °F - 44.6 °F 36% 30.15 in 5.0 mi Variable 2.3 mph - N/A   Unknown
8:30 AM 77.0 °F - 44.6 °F 32% 30.18 in 4.3 mi Calm Calm - N/A   Unknown
9:00 AM 80 °F - 44 °F 18% 30.11 in 4 mi WSW 1.2 mph - -  
9:00 AM 80.6 °F - 44.6 °F 28% 30.18 in 3.7 mi Variable 1.2 mph - N/A   Unknown
9:30 AM 78.8 °F - 42.8 °F 28% 30.18 in 5.0 mi SW 3.5 mph - N/A   Unknown
10:00 AM 84.2 °F - 44.6 °F 25% 30.18 in 5.0 mi Variable 2.3 mph - N/A   Unknown
10:30 AM 84.2 °F - 44.6 °F 25% 30.18 in 5.6 mi NW 4.6 mph - N/A   Unknown
11:00 AM 86.0 °F - 42.8 °F 22% 30.15 in 5.0 mi NNW 3.5 mph - N/A   Unknown
11:30 AM 87.8 °F - 42.8 °F 21% 30.15 in - NW 4.6 mph - N/A   Clear
12:00 PM 89 °F - 43 °F 12% 30.05 in 6 mi NW 8.1 mph - -  
12:00 PM 89.6 °F - 42.8 °F 20% 30.15 in - Variable 6.9 mph - N/A   Clear
12:30 PM 91.4 °F - 41.0 °F 17% 30.12 in - NNW 4.6 mph - N/A   Clear
1:00 PM 91.4 °F - 39.2 °F 16% 30.12 in 5.6 mi North 4.6 mph - N/A   Partly Cloudy
1:30 PM 93.2 °F - 37.4 °F 14% 30.09 in 6.2 mi North 6.9 mph - N/A   Partly Cloudy
2:00 PM 95.0 °F - 37.4 °F 13% 30.06 in 6.2 mi North 6.9 mph - N/A   Partly Cloudy
2:30 PM 93.2 °F - 35.6 °F 13% 30.06 in 6.2 mi NE 11.5 mph - N/A   Partly Cloudy
3:00 PM 95 °F - 36 °F 6% 29.95 in 6 mi North 4.6 mph - -   Scattered Clouds
3:00 PM 95.0 °F - 35.6 °F 12% 30.06 in 6.2 mi Variable 4.6 mph - N/A   Partly Cloudy
3:30 PM 93.2 °F - 35.6 °F 13% 30.06 in 6.2 mi ENE 6.9 mph - N/A   Partly Cloudy
4:00 PM 93.2 °F - 35.6 °F 13% 30.06 in 6.2 mi NE 8.1 mph - N/A   Partly Cloudy
4:30 PM 93.2 °F - 35.6 °F 13% 30.04 in 6.2 mi Variable 5.8 mph - N/A   Partly Cloudy
5:00 PM 93.2 °F - 35.6 °F 13% 30.06 in 6.2 mi NE 3.5 mph - N/A   Partly Cloudy
5:30 PM 93.2 °F - 33.8 °F 12% 30.06 in 6.2 mi NNW 4.6 mph - N/A   Partly Cloudy
6:00 PM 89 °F - 32 °F 6% 29.96 in 6 mi North 5.8 mph - -   Scattered Clouds
6:00 PM 89.6 °F - 32.0 °F 13% 30.06 in 6.2 mi North 5.8 mph - N/A   Partly Cloudy
6:30 PM 86.0 °F 84.2 °F 53.6 °F 33% 30.06 in 5.0 mi North 10.4 mph - N/A   Partly Cloudy
7:00 PM 82.4 °F - 51.8 °F 35% 30.09 in 5.0 mi North 11.5 mph - N/A   Partly Cloudy
7:30 PM 80.6 °F - 50.0 °F 34% 30.09 in 6.2 mi North 13.8 mph - N/A   Partly Cloudy
8:00 PM 80.6 °F - 48.2 °F 32% 30.09 in 6.2 mi NNE 10.4 mph - N/A   Partly Cloudy
8:30 PM 78.8 °F - 51.8 °F 39% 30.12 in - NNE 9.2 mph - N/A   Clear
9:00 PM 77 °F - 51 °F 29% 30.06 in 6 mi NNE 5.8 mph - -  
9:00 PM 77.0 °F - 51.8 °F 41% 30.12 in - NNE 5.8 mph - N/A   Clear
9:30 PM 77.0 °F - 50.0 °F 39% 30.12 in - East 6.9 mph - N/A   Clear
10:00 PM 75.2 °F - 50.0 °F 41% 30.12 in - ENE 5.8 mph - N/A   Clear
10:30 PM 73.4 °F - 50.0 °F 44% 30.12 in - Variable 1.2 mph - N/A   Clear
11:00 PM 71.6 °F - 50.0 °F 46% 30.12 in - SW 3.5 mph - N/A   Clear
11:30 PM 68.0 °F - 50.0 °F 52% 30.12 in - WSW 6.9 mph - N/A   Clear
11:48 PM 69 °F - 50 °F 40% 30.07 in 6 mi SW 4.6 mph - -   Clear